Location: Ch�tillon
(48.8024°N, 2.2935°E)
Time: 17:59:45
(UTC+00:00)

RS-15 - Pass Details

Date: 28 June 2022
Orbit: 1881 x 2163 km, 64.8° (Epoch: 11 August)

Event Time Altitude Azimuth Distance (km) Brightness Sun altitude
Rises 22:41:32 0° 316° (NW) 5,692 11.6 -16.1°
Reaches altitude 10° 22:45:04 10° 319° (NW) 4,692 11.1 -16.3°
Maximum altitude 22:57:30 70° 44° (NE) 2,255 8.4 -16.8°
Drops below altitude 10° 23:09:32 10° 128° (SE) 4,567 9.5 -17.3°
Enters shadow 23:10:31 - 129° (SE) 4,849 9.7 -17.3°
